Flag for Argentina Weather past 2 weeks in Zárate, Buenos Aires, Argentina

Now
70 °F

Scattered clouds.


Feels Like: 70 °F
Forecast: 65 / 73 °F
Wind: 16 mph from Southeast

Location: Buenos Aires Airport

Current Time: Apr 28, 2015 at 12:29:16 PM

Latest Report: Apr 28, 2015 at 12:00 PM


Visibility: N/A

Pressure: 30.15 "Hg

Humidity: 69%

Dew point: 59 °F

Location of ZárateLocation

Historic Weather in Zárate — Graph

°F

Zárate temperature yesterday

Maximum temperature yesterday: 75 °F (at 3:00 PM)
Minimum temperature yesterday: 66 °F (at 2:00 AM)
Average temperature yesterday: 69 °F

Past Weeks' High & Low Weather Summary

 TemperatureHumidityPressure
High82 °F (Apr 13, 5:00 PM)100% (Apr 17, 2:00 AM)30.21 "Hg (Apr 17, 2:00 AM)
Low55 °F (Apr 18, 7:00 AM)27% (Apr 18, 2:00 PM)29.74 "Hg (Apr 19, 4:00 AM)
Average68 °F68%30.01 "Hg
* Reported Apr 13 11:00 AM — Apr 28 11:00 AM, Zárate, Weather by CustomWeather, © 2015

Note: Actual official high and low records may vary slightly from our data, if they occured in-between our weather recording intervals... More about our weather records

Advertising

Zárate weather history for previous 24 hours

 ConditionsComfort  
Time TempWeatherWind HumidityBarometerVisibility
11:00 AM
Tue, Apr 28
68 °FPartly sunny.20 mph78%30.18 "HgN/A
10:00 AM68 °FBroken clouds.21 mph78%30.18 "HgN/A
9:00 AM68 °FPartly sunny.17 mph78%30.15 "HgN/A
8:00 AMN/APartly sunny.18 mphN/AN/AN/A
7:00 AM66 °FPartly sunny.21 mph83%30.12 "HgN/A
6:00 AM66 °FPassing clouds.21 mph83%30.12 "HgN/A
5:00 AM66 °FPassing clouds.20 mph83%30.09 "HgN/A
4:00 AM66 °FOvercast.17 mph83%30.12 "HgN/A
3:00 AM66 °FPassing clouds.13 mph83%30.12 "HgN/A
2:00 AM66 °FPassing clouds.16 mph83%30.12 "HgN/A
1:00 AM66 °FPassing clouds.17 mph83%30.12 "HgN/A
12:00 AM66 °FPassing clouds.21 mph83%30.12 "HgN/A
11:00 PM
Mon, Apr 27
66 °FPassing clouds.16 mph83%30.12 "HgN/A
10:00 PM66 °FPassing clouds.17 mph83%30.09 "HgN/A
9:00 PM68 °FPassing clouds.17 mph78%30.09 "HgN/A
8:00 PM68 °FPassing clouds.21 mph83%30.07 "HgN/A
7:00 PM68 °FClear.15 mph78%30.04 "Hg10 mi
6:00 PM72 °FClear.12 mph50%30.04 "Hg10 mi
5:00 PM75 °FSunny.13 mph41%30.04 "Hg10 mi
4:00 PM75 °FSunny.12 mph39%30.04 "Hg10 mi
3:00 PM75 °FSunny.10 mph50%30.04 "Hg10 mi
2:00 PM72 °FSunny.7 mph65%30.07 "Hg10 mi
1:00 PM70 °FSunny.6 mph64%30.07 "Hg10 mi
12:00 PM72 °FSunny.7 mph65%30.09 "Hg10 mi
Weather by CustomWeather, © 2015

See weather overviewHow to use our weather pages